Location: Doschendorf
(50.0069°N, 11.0602°E)
Time: 06:19:07
(UTC+00:00)

BREEZE-M DEB (TANK) - Pass Details

Date: 17 November 2019
Orbit: 333 x 16598 km, 49.4° (Epoch: 09 December)

Event Time Altitude Azimuth Distance (km) Brightness Sun altitude
Rises 18:19:52 0° 278° (W) 4,790 8.4 -27.1°
Reaches altitude 10° 18:24:19 10° 277° (W) 2,617 6.7 -27.8°
Enters shadow 18:27:52 37° 268° (W) 861 3.7 -28.4°
